Погода в Палочке

Россия / Томская область     58°22′40″N   84°36′58″E
темп.,
°C
ветер,
м/с
пор.,
м/с
влажн.,
%
обл.,
%
осадки,
мм/ч
давл.,
гПа
погр.,
м
23 апреля, пт
пт2301:00−6с11955 0.0 104613
04:00−7с119611 0.0 104610
07:00−5св11915 0.0 104735
10:00+2св11745 0.0 1048336
13:00+4ссв11615 0.0 10471045
16:00+5ссв12555 0.0 10451181
19:00+4всв11765 0.0 104411
22:00−3в01935 0.0 104410
24 апреля, сб
сб2401:00−4ссв11955 0.0 104310
04:00−4св11965 0.0 104210
07:00−2всв11895 0.0 104133
10:00+3с12685 0.0 1038456
13:00+5ссв22595 0.0 10361074
16:00+6с12575 0.0 10341237
19:00+5сз118012 0.0 103310
22:00−2зсз11945 0.0 103310
25 апреля, вс
вс2501:00−2сз11965 0.0 103214
04:00−3зсз11965 0.0 103211
07:00−1з13895 0.0 103270
10:00+5зсз23705 0.0 1031409
13:00+7з23615 0.0 10301322
16:00+8зсз235877 0.0 10301457
19:00+6зсз227654 0.1 103024
22:00+2з11832 0.0 103010
26 апреля, пн
пн2601:000юз118513 0.0 103010
04:000ю11885 0.0 103010
07:00+1ю11885 0.0 103018
10:00+7ю236917 0.0 1029472
13:00+10ю345472 0.0 10271552
16:00+11ююз3547100 0.0 10251902
19:00+9ю3764100 0.0 1023262
22:00+6ююв3881100 0.0 1022188
27 апреля, вт
вт2701:00+6ююв41275100 0.0 1019349
04:00+5ююв2780100 0.0 1017275
07:00+4ю3786100 0.6 1015648
10:00+3ю2497100 4.9 1015380
13:00+6з268959 6.2 1015431
16:00+11з485116 0.6 10142046
19:00+10з25606 1.1 1014206
22:00+5ююз267963 0.2 1014101